Time,TemperatureF,DewpointF,PressureIn,WindDirection,WindDirectionDegrees,WindSpeedMPH,WindSpeedGustMPH,Humidity,HourlyPrecipIn,Conditions,Clouds,dailyrainin,SoftwareType,DateUTC
2013-10-14 00:22:00,41.0,41.0,30.30,North,0,0.0,0.0,100,0.00,,,-99.99,,2013-10-14 07:22:00,
2013-10-14 00:42:00,40.0,40.0,30.30,North,0,0.0,0.0,100,0.00,,,-99.99,,2013-10-14 07:42:00,
2013-10-14 00:52:00,40.0,40.0,30.30,North,0,0.0,0.0,100,0.00,,,-99.99,,2013-10-14 07:52:00,
2013-10-14 01:21:00,39.0,39.0,30.30,North,0,0.0,0.0,100,0.00,,,-99.99,,2013-10-14 08:21:00,
2013-10-14 02:22:00,38.0,38.0,30.31,North,0,0.0,0.0,100,0.00,,,-99.99,,2013-10-14 09:22:00,
2013-10-14 02:43:00,38.0,38.0,30.31,North,0,0.0,0.0,100,0.00,,,-99.99,,2013-10-14 09:43:00,
2013-10-14 02:53:00,37.0,37.0,30.32,North,0,0.0,0.0,100,0.00,,,-99.99,,2013-10-14 09:53:00,
2013-10-14 03:22:00,37.0,37.0,30.32,North,0,0.0,0.0,100,0.00,,,-99.99,,2013-10-14 10:22:00,
2013-10-14 04:22:00,36.0,36.0,30.31,North,0,0.0,0.0,100,0.00,,,-99.99,,2013-10-14 11:22:00,
2013-10-14 04:42:00,36.0,36.0,30.31,North,0,0.0,0.0,100,0.00,,,-99.99,,2013-10-14 11:42:00,
2013-10-14 04:52:00,36.0,36.0,30.30,North,0,0.0,0.0,100,0.00,,,-99.99,,2013-10-14 11:52:00,
2013-10-14 05:22:00,35.0,35.0,30.30,North,0,0.0,0.0,100,0.00,,,-99.99,,2013-10-14 12:22:00,
2013-10-14 05:42:00,35.0,35.0,30.30,North,0,0.0,0.0,100,0.00,,,-99.99,,2013-10-14 12:42:00,
2013-10-14 05:52:00,35.0,35.0,30.30,North,0,0.0,0.0,100,0.00,,,-99.99,,2013-10-14 12:52:00,
2013-10-14 06:11:00,35.0,35.0,30.30,North,0,0.0,0.0,100,0.00,,,-99.99,,2013-10-14 13:11:00,
2013-10-14 06:21:00,35.0,35.0,30.31,North,0,0.0,0.0,100,0.00,,,-99.99,,2013-10-14 13:21:00,
2013-10-14 06:41:00,34.0,34.0,30.31,North,0,0.0,0.0,100,0.00,,,-99.99,,2013-10-14 13:41:00,
2013-10-14 06:52:00,35.0,35.0,30.32,North,0,0.0,0.0,100,0.00,,,-99.99,,2013-10-14 13:52:00,
2013-10-14 07:11:00,34.0,34.0,30.32,North,0,0.0,0.0,100,0.00,,,-99.99,,2013-10-14 14:11:00,
2013-10-14 07:42:00,34.0,34.0,30.32,North,0,0.0,0.0,100,0.00,,,-99.99,,2013-10-14 14:42:00,
2013-10-14 07:52:00,34.0,34.0,30.32,North,0,0.0,0.0,100,0.00,,,-99.99,,2013-10-14 14:52:00,
2013-10-14 08:21:00,34.0,34.0,30.33,North,0,0.0,0.0,100,0.00,,,-99.99,,2013-10-14 15:21:00,
2013-10-14 08:54:00,36.0,36.0,30.33,North,0,0.0,0.0,100,0.00,,,-99.99,,2013-10-14 15:54:00,
2013-10-14 09:23:00,39.0,39.0,30.33,North,0,0.0,0.0,100,0.00,,,-99.99,,2013-10-14 16:23:00,
2013-10-14 09:53:00,43.0,43.0,30.33,North,0,0.0,0.0,100,0.00,,,-99.99,,2013-10-14 16:53:00,
2013-10-14 10:22:00,47.0,47.0,30.32,North,0,0.0,0.0,100,0.00,,,-99.99,,2013-10-14 17:22:00,
2013-10-14 11:52:00,60.0,47.0,30.32,NE,47,0.0,3.0,62,0.00,,,-99.99,,2013-10-14 18:52:00,
2013-10-14 12:21:00,61.0,46.0,30.32,NNE,22,0.0,2.0,58,0.00,,,-99.99,,2013-10-14 19:21:00,
2013-10-14 12:52:00,62.0,47.0,30.32,NE,37,0.0,2.0,57,0.00,,,-99.99,,2013-10-14 19:52:00,
2013-10-14 13:22:00,63.0,46.0,30.31,North,0,0.0,0.0,53,0.00,,,-99.99,,2013-10-14 20:22:00,
2013-10-14 13:52:00,64.0,45.0,30.30,North,357,0.0,3.0,51,0.00,,,-99.99,,2013-10-14 20:52:00,
2013-10-14 14:21:00,65.0,45.0,30.29,North,357,0.0,2.0,49,0.00,,,-99.99,,2013-10-14 21:21:00,
2013-10-14 14:54:00,66.0,46.0,30.28,North,357,0.0,4.0,49,0.00,,,-99.99,,2013-10-14 21:54:00,
2013-10-14 15:24:00,66.0,46.0,30.28,North,0,0.0,0.0,48,0.00,,,-99.99,,2013-10-14 22:24:00,
2013-10-14 15:54:00,67.0,47.0,30.27,North,0,0.0,0.0,49,0.00,,,-99.99,,2013-10-14 22:54:00,
2013-10-14 16:22:00,67.0,47.0,30.27,North,0,0.0,0.0,48,0.00,,,-99.99,,2013-10-14 23:22:00,
2013-10-14 16:52:00,67.0,47.0,30.27,North,0,0.0,0.0,49,0.00,,,-99.99,,2013-10-14 23:52:00,
2013-10-14 17:21:00,66.0,46.0,30.27,North,0,0.0,0.0,49,0.00,,,-99.99,,2013-10-15 00:21:00,
2013-10-14 17:52:00,65.0,46.0,30.27,North,357,0.0,2.0,51,0.00,,,-99.99,,2013-10-15 00:52:00,
2013-10-14 18:21:00,63.0,47.0,30.27,North,357,0.0,1.0,56,0.00,,,-99.99,,2013-10-15 01:21:00,
2013-10-14 18:52:00,57.0,48.0,30.27,North,0,0.0,0.0,73,0.00,,,-99.99,,2013-10-15 01:52:00,
2013-10-14 20:55:00,49.0,48.0,30.28,North,0,0.0,0.0,95,0.00,,,-99.99,,2013-10-15 03:55:00,
2013-10-14 21:14:00,48.0,47.0,30.28,North,0,0.0,0.0,95,0.00,,,-99.99,,2013-10-15 04:14:00,
2013-10-14 21:24:00,47.0,46.0,30.28,North,0,0.0,0.0,95,0.00,,,-99.99,,2013-10-15 04:24:00,
2013-10-14 21:54:00,45.0,44.0,30.29,North,0,0.0,0.0,97,0.00,,,-99.99,,2013-10-15 04:54:00,
2013-10-14 22:22:00,44.0,44.0,30.29,North,0,0.0,0.0,99,0.00,,,-99.99,,2013-10-15 05:22:00,
2013-10-14 22:52:00,44.0,44.0,30.29,North,0,0.0,0.0,100,0.00,,,-99.99,,2013-10-15 05:52:00,
2013-10-14 23:22:00,43.0,43.0,30.29,North,0,0.0,0.0,100,0.00,,,-99.99,,2013-10-15 06:22:00,
2013-10-14 23:42:00,43.0,43.0,30.29,North,0,0.0,0.0,100,0.00,,,-99.99,,2013-10-15 06:42:00,
2013-10-14 23:52:00,43.0,43.0,30.29,North,0,0.0,0.0,100,0.00,,,-99.99,,2013-10-15 06:52:00,